User: anonymous   Login
Location: Unspecified
(0.0000°N, 0.0000°E)
Time: 03:52:46
(UTC+00:00)
Language:

RS-6 - Orbit

View from above orbital plane
View from above orbital plane
View from above satellite
View from above satellite

Ground track
Ground track

The orbit data is extracted from the following two-line orbital elements,

1 13000U 81120D   22331.98099550  .00000047  00000-0  43522-3 0  9992
2 13000  82.9641  47.6166 0017325 324.1827 208.5738 12.06884603803957
Epoch (UTC): 27 November 2022 23:32:38
Eccentricity: 0.0017325
inclination: 82.9641°
perigee height: 1636 km
apogee height: 1664 km
right ascension of ascending node: 47.6166°
argument of perigee: 324.1827°
revolutions per day: 12.06884603
mean anomaly at epoch: 208.5738°
orbit number at epoch: 80395

The dashed part of the orbit path shows where the satellite is in the earth's shadow,  

DLR